This demonstration page uses our WeatherBlox Daily Observations layout. Learn more.

Left ArrowRight Arrow

31.84235, -102.49876

Hourly Observations for May 28, 2021

Temp ( °F °C ) Dew Point ( °F °C ) Humidity (%) Winds ( mph kmh ) Pressure ( in mb ) Visibility ( mi km ) Precip ( " mm )
12:53 am 00:53 Clear 75 23.9 61 16.1 62 62 SSE 7 11 29.83 1010 10 16 0.00 0.00
1:53 am 01:53 Clear 72 22.2 61 16.1 68 68 S 7 11 29.83 1010 10 16 0.00 0.00
2:53 am 02:53 Clear 71 21.7 61 16.1 71 71 S 6 9 29.81 1010 10 16 0.00 0.00
3:53 am 03:53 Clear 73 22.8 61 16.1 66 66 S 8 13 29.80 1009 10 16 0.00 0.00
4:53 am 04:53 Clear 70 21.1 61 16.1 73 73 SSW 7 11 29.80 1009 10 16 0.00 0.00
5:53 am 05:53 Mostly Clear 70 21.1 61 16.1 73 73 ENE 10 17 29.86 1011 10 16 0.00 0.00
6:53 am 06:53 Sunny 67 19.4 60 15.6 79 79 E 12 19 29.87 1011 10 16 0.00 0.00
7:53 am 07:53 Sunny 68 20 60 15.6 76 76 E 13 20 29.88 1012 10 16 0.00 0.00
8:28 am 08:28 Mostly Cloudy 70 21.1 60 15.6 71 71 E 14 22 29.90 1012 10 16 0.00 0.00
8:53 am 08:53 Cloudy 70 21.1 60 15.6 71 71 E 14 22 29.91 1013 10 16 0.00 0.00
9:53 am 09:53 Cloudy 73 22.8 62 16.7 69 69 E 15 24 29.92 1013 10 16 0.00 0.00
10:10 am 10:10 Cloudy 74 23.3 62 16.7 67 67 E 15 24 29.91 1013 10 16 0.00 0.00
10:28 am 10:28 Cloudy 75 23.9 62 16.7 64 64 E 16 26 29.90 1013 10 16 0.00 0.00
10:53 am 10:53 Cloudy 75 23.9 63 17.2 66 66 E 14 22 29.93 1013 10 16 0.00 0.00
11:45 am 11:45 Partly Cloudy 79 26.1 64 17.8 60 60 E 15 24 29.88 1012 10 16 0.00 0.00
11:53 am 11:53 Mostly Sunny 78 25.6 64 17.8 62 62 E 14 22 29.92 1013 10 16 0.00 0.00
12:53 pm 12:53 Partly Cloudy 81 27.2 65 18.3 58 58 ESE 16 26 29.91 1013 10 16 0.00 0.00
1:06 pm 13:06 Mostly Cloudy 81 27.2 64 17.8 57 57 E 15 24 29.86 1011 10 16 0.00 0.00
1:34 pm 13:34 Partly Cloudy 83 28.3 65 18.3 55 55 E 15 24 29.84 1010 10 16 0.00 0.00
1:53 pm 13:53 Mostly Cloudy 83 28.3 65 18.3 55 55 E 16 26 29.89 1012 10 16 0.00 0.00
2:53 pm 14:53 Mostly Cloudy 86 30 65 18.3 49 49 E 15 24 29.87 1012 10 16 0.00 0.00
3:53 pm 15:53 Mostly Sunny 85 29.4 66 18.9 53 53 ENE 20 31 29.86 1011 10 16 0.00 0.00
4:53 pm 16:53 Sunny 83 28.3 65 18.3 55 55 ENE 17 28 29.84 1011 10 16 0.00 0.00
5:53 pm 17:53 Sunny 82 27.8 65 18.3 56 56 ENE 21 33 29.82 1010 10 16 0.00 0.00
6:53 pm 18:53 Mostly Sunny 79 26.1 64 17.8 60 60 E 25 41 29.82 1010 10 16 0.00 0.00
7:50 pm 19:50 Mostly Cloudy with Nearby Thunderstorms 75 24 63 17 65 65 SE 16 26 29.85 1011 10 16 0.00 0.00
7:53 pm 19:53 Cloudy with Nearby Thunderstorms 76 24.4 62 16.7 62 62 SE 17 28 29.88 1012 10 16 0.00 0.00
8:04 pm 20:04 Windy with Storms Likely 73 22.8 62 16.7 69 69 ESE 22 35 29.82 1010 10 16 0.00 0.00
8:20 pm 20:20 Mostly Sunny 74 23.3 61 16.1 64 64 SE 25 41 29.80 1009 10 16 0.00 0.00
8:53 pm 20:53 Clear 69 20.6 59 15 70 70 E 20 31 29.82 1010 10 16 0.00 0.00
9:53 pm 21:53 Clear 69 20.6 56 13.3 63 63 ENE 14 22 29.82 1010 10 16 0.00 0.00
10:53 pm 22:53 Mostly Clear 69 20.6 58 14.4 68 68 S 6 9 29.92 1013 10 16 0.00 0.00
11:24 pm 23:24 Mostly Cloudy with Light Rain 66 18.9 51 10.6 59 59 NNE 25 41 30.03 1017 6 10 0.00 0.00
11:51 pm 23:51 Cloudy with Thunderstorms 66 19 52 11 60 60 WNW 25 41 30.11 1020 9 14 0.01 0.25
11:53 pm 23:53 Windy with Storms Likely 64 17.8 53 11.7 68 68 NW 28 44 30.11 1020 3 5 0.07 1.78
11:57 pm 23:57 Cloudy with Strong Thunderstorms 62 16.7 54 12.2 75 75 NNW 18 30 30.12 1020 2 3 0.04 1.02

Powered by AerisWeather